Flag for U.S.A. Weather past 2 weeks in San Antonio, Texas, U.S.A.

Now
95 °F

Passing clouds.


Feels Like: 94 °F
Forecast: 73 / 96 °F
Wind: 9 mph from Southeast

Location: San Antonio International Airport

Current Time: Aug 2, 2015 at 8:06:50 PM

Latest Report: Aug 2, 2015 at 6:51 PM


Visibility: 10 mi

Pressure: 29.80 "Hg

Humidity: 30%

Dew point: 59 °F

Location of San AntonioLocation

Historic Weather in San Antonio — Graph

°F

San Antonio temperature yesterday

Maximum temperature yesterday: 98 °F (at 3:51 PM)
Minimum temperature yesterday: 77 °F (at 3:51 AM)
Average temperature yesterday: 87 °F

Past Weeks' High & Low Weather Summary

 TemperatureHumidityPressure
High98 °F (Jul 27, 4:51 PM)88% (Jul 20, 4:51 AM)30.06 "Hg (Jul 20, 4:51 AM)
Low75 °F (Aug 2, 6:51 AM)24% (Aug 1, 5:51 PM)29.77 "Hg (Jul 21, 6:51 PM)
Average86 °F60%29.91 "Hg
* Reported Jul 18 6:51 PM — Aug 2 6:51 PM, San Antonio, Weather by CustomWeather, © 2015

Note: Actual official high and low records may vary slightly from our data, if they occured in-between our weather recording intervals... More about our weather records

Advertising

San Antonio weather history for previous 24 hours

 ConditionsComfort  
Time TempWeatherWind HumidityBarometerVisibility
6:51 PM
Sun, Aug 2
95 °FPassing clouds.9 mph30%29.80 "Hg10 mi
5:51 PM96 °FScattered clouds.8 mph28%29.81 "Hg10 mi
4:51 PM97 °FPassing clouds.12 mph29%29.82 "Hg10 mi
3:51 PM96 °FPassing clouds.10 mph30%29.84 "Hg10 mi
2:51 PM95 °FPassing clouds.6 mph32%29.85 "Hg10 mi
1:51 PM95 °FPassing clouds.6 mph31%29.88 "Hg10 mi
12:51 PM93 °FPassing clouds.12 mph37%29.90 "Hg10 mi
11:51 AM90 °FPassing clouds.6 mph41%29.92 "Hg10 mi
10:51 AM89 °FPassing clouds.No wind45%29.92 "Hg10 mi
9:51 AM86 °FPassing clouds.5 mph48%29.92 "Hg10 mi
8:51 AM82 °FPassing clouds.3 mph60%29.91 "Hg10 mi
7:51 AM76 °FPassing clouds.No wind74%29.89 "Hg10 mi
6:51 AM75 °FPassing clouds.3 mph74%29.88 "Hg10 mi
5:51 AM76 °FClear.5 mph74%29.88 "Hg10 mi
4:51 AM77 °FClear.No wind71%29.88 "Hg10 mi
3:51 AM78 °FClear.3 mph69%29.88 "Hg10 mi
2:51 AM79 °FClear.5 mph67%29.88 "Hg10 mi
1:51 AM81 °FClear.6 mph60%29.89 "Hg10 mi
12:51 AM82 °FClear.8 mph55%29.90 "Hg10 mi
11:51 PM
Sat, Aug 1
82 °FClear.5 mph44%29.90 "Hg10 mi
10:51 PM84 °FPassing clouds.8 mph43%29.89 "Hg10 mi
9:51 PM86 °FPassing clouds.7 mph39%29.88 "Hg10 mi
8:51 PM89 °FPassing clouds.9 mph34%29.87 "Hg10 mi
Weather by CustomWeather, © 2015

See weather overviewHow to use our weather pages